User: anonymous   Login
Location: Unspecified
(0.0000°N, 0.0000°E)
Time: 19:49:25
(UTC+00:00)
Language:

BKA 2 - Orbit

View from above orbital plane
View from above orbital plane
View from above satellite
View from above satellite

Ground track
Ground track

The orbit data is extracted from the following two-line orbital elements,

1 38708U 12039B   18344.50228336  .00000173  00000-0  11189-4 0  9995
2 38708  97.4013 252.4425 0001706  91.7092  22.1555 15.19803946354208
Epoch (UTC): 10 December 2018 12:03:17
Eccentricity: 0.0001706
inclination: 97.4013°
perigee height: 505 km
apogee height: 507 km
right ascension of ascending node: 252.4425°
argument of perigee: 91.7092°
revolutions per day: 15.19803946
mean anomaly at epoch: 22.1555°
orbit number at epoch: 35420

The dashed part of the orbit path shows where the satellite is in the earth's shadow,  

DLR